QPF
0.01 0.01 0.00 0.00 0.00 0.00 0.00 0.00 0.01 0.01 0.01 0.02 0.03 0.02 0.04 0.05 0.04 0.04 0.03 0.03 0.05 0.04 0.04 0.05 0.07 0.07 0.06 0.05 0.05 0.05 0.04 0.03 0.04 0.03 0.03 0.04 0.04 0.03 0.02 0.02 0.03 0.03 0.03
0.00 0.01 0.01 0.01 0.00 0.00 0.00 0.00 0.01 0.01 0.01 0.02 0.03 0.02 0.04 0.04 0.04 0.04 0.04 0.04 0.06 0.05 0.05 0.05 0.06 0.08 0.07 0.06 0.05 0.04 0.04 0.03 0.03 0.03 0.04 0.03 0.03 0.03 0.02 0.03 0.03 0.04 0.03
0.00 0.01 0.02 0.02 0.02 0.01 0.01 0.01 0.02 0.02 0.03 0.03 0.03 0.03 0.04 0.03 0.03 0.04 0.03 0.03 0.04 0.04 0.05 0.05 0.05 0.06 0.06 0.06 0.06 0.06 0.05 0.04 0.03 0.03 0.05 0.04 0.03 0.04 0.03 0.02 0.02 0.02 0.03
0.01 0.01 0.02 0.02 0.02 0.02 0.02 0.02 0.04 0.04 0.04 0.03 0.03 0.03 0.04 0.03 0.02 0.03 0.03 0.04 0.05 0.04 0.04 0.05 0.06 0.06 0.05 0.06 0.06 0.05 0.05 0.04 0.03 0.04 0.04 0.05 0.06 0.07 0.05 0.03 0.02 0.02 0.03
0.01 0.01 0.03 0.04 0.05 0.04 0.03 0.03 0.04 0.04 0.04 0.05 0.05 0.05 0.03 0.03 0.03 0.03 0.03 0.03 0.03 0.03 0.03 0.05 0.07 0.07 0.05 0.05 0.05 0.04 0.04 0.04 0.03 0.04 0.05 0.06 0.07 0.07 0.07 0.05 0.04 0.03 0.03
0.00 0.01 0.03 0.05 0.04 0.04 0.03 0.03 0.04 0.05 0.06 0.05 0.05 0.05 0.04 0.04 0.04 0.04 0.04 0.04 0.04 0.04 0.04 0.04 0.05 0.06 0.05 0.04 0.05 0.05 0.04 0.04 0.05 0.05 0.06 0.06 0.07 0.09 0.09 0.08 0.05 0.04 0.04
0.01 0.02 0.02 0.02 0.02 0.03 0.03 0.03 0.03 0.04 0.04 0.05 0.05 0.04 0.03 0.03 0.03 0.03 0.04 0.04 0.05 0.05 0.05 0.05 0.04 0.04 0.04 0.04 0.04 0.04 0.05 0.04 0.05 0.06 0.06 0.06 0.06 0.07 0.09 0.09 0.08 0.07 0.05
0.01 0.01 0.01 0.01 0.01 0.01 0.02 0.03 0.03 0.03 0.04 0.03 0.04 0.04 0.04 0.04 0.02 0.02 0.02 0.03 0.03 0.04 0.04 0.05 0.05 0.05 0.06 0.05 0.05 0.06 0.06 0.05 0.06 0.05 0.06 0.06 0.05 0.06 0.07 0.07 0.07 0.07 0.06
0.01 0.01 0.01 0.01 0.01 0.01 0.03 0.04 0.03 0.03 0.03 0.03 0.03 0.04 0.05 0.05 0.04 0.02 0.01 0.02 0.03 0.06 0.07 0.06 0.05 0.06 0.07 0.07 0.07 0.06 0.06 0.05 0.05 0.04 0.03 0.04 0.04 0.05 0.07 0.07 0.07 0.07 0.06
0.01 0.01 0.01 0.01 0.01 0.02 0.02 0.02 0.01 0.02 0.02 0.03 0.02 0.02 0.02 0.03 0.02 0.02 0.02 0.02 0.03 0.06 0.09 0.09 0.07 0.07 0.06 0.05 0.05 0.06 0.06 0.06 0.06 0.05 0.06 0.05 0.04 0.05 0.05 0.06 0.06 0.06 0.05
0.01 0.01 0.01 0.01 0.01 0.01 0.00 0.01 0.01 0.02 0.02 0.01 0.01 0.01 0.01 0.01 0.02 0.02 0.02 0.03 0.04 0.04 0.06 0.08 0.10 0.09 0.08 0.06 0.06 0.04 0.04 0.04 0.05 0.04 0.05 0.06 0.07 0.08 0.08 0.08 0.08 0.08 0.07
0.01 0.01 0.01 0.01 0.00 0.01 0.00 0.01 0.02 0.02 0.02 0.01 0.01 0.01 0.01 0.01 0.02 0.02 0.01 0.02 0.01 0.02 0.02 0.04 0.06 0.09 0.10 0.10 0.09 0.06 0.05 0.04 0.04 0.03 0.02 0.03 0.03 0.05 0.06 0.08 0.10 0.10 0.11
0.01 0.01 0.01 0.01 0.01 0.01 0.01 0.01 0.01 0.01 0.01 0.01 0.01 0.01 0.01 0.01 0.01 0.01 0.01 0.02 0.01 0.01 0.02 0.04 0.07 0.08 0.10 0.12 0.13 0.11 0.08 0.06 0.04 0.03 0.03 0.03 0.03 0.04 0.03 0.03 0.05 0.07 0.08
0.01 0.01 0.01 0.01 0.01 0.01 0.01 0.01 0.01 0.02 0.02 0.02 0.01 0.01 0.01 0.01 0.01 0.01 0.01 0.01 0.01 0.01 0.02 0.03 0.05 0.07 0.08 0.08 0.09 0.11 0.13 0.10 0.07 0.05 0.04 0.03 0.02 0.02 0.02 0.03 0.03 0.03 0.05
0.02 0.02 0.02 0.01 0.01 0.01 0.01 0.02 0.02 0.02 0.03 0.02 0.01 0.01 0.01 0.01 0.01 0.02 0.02 0.02 0.02 0.01 0.02 0.02 0.04 0.04 0.04 0.05 0.05 0.06 0.08 0.10 0.10 0.09 0.07 0.05 0.04 0.03 0.02 0.02 0.03 0.04 0.05
0.03 0.02 0.02 0.01 0.01 0.01 0.01 0.01 0.02 0.02 0.02 0.02 0.02 0.03 0.03 0.03 0.03 0.03 0.03 0.03 0.03 0.02 0.02 0.02 0.03 0.05 0.03 0.03 0.03 0.03 0.04 0.05 0.07 0.08 0.07 0.05 0.04 0.04 0.03 0.02 0.02 0.03 0.04
0.03 0.02 0.01 0.01 0.01 0.01 0.01 0.01 0.01 0.01 0.02 0.02 0.03 0.03 0.04 0.05 0.06 0.05 0.04 0.03 0.04 0.02 0.01 0.01 0.02 0.02 0.03 0.02 0.03 0.04 0.04 0.05 0.04 0.04 0.04 0.03 0.02 0.02 0.02 0.02 0.01 0.01 0.01
0.03 0.02 0.02 0.01 0.01 0.00 0.00 0.00 0.01 0.01 0.01 0.02 0.02 0.02 0.03 0.06 0.08 0.06 0.05 0.04 0.03 0.03 0.01 0.01 0.01 0.02 0.01 0.01 0.01 0.02 0.03 0.04 0.04 0.03 0.02 0.02 0.02 0.01 0.01 0.02 0.01 0.01 0.01
0.02 0.02 0.02 0.01 0.01 0.01 0.01 0.01 0.01 0.00 0.00 0.01 0.01 0.02 0.02 0.03 0.04 0.04 0.04 0.04 0.03 0.03 0.03 0.01 0.02 0.02 0.02 0.01 0.01 0.01 0.01 0.03 0.03 0.02 0.02 0.02 0.02 0.02 0.02 0.01 0.01 0.01 0.01
0.02 0.01 0.01 0.01 0.01 0.01 0.01 0.01 0.00 0.01 0.01 0.01 0.01 0.01 0.02 0.02 0.02 0.02 0.03 0.04 0.04 0.04 0.04 0.02 0.01 0.01 0.02 0.01 0.01 0.01 0.01 0.01 0.03 0.03 0.03 0.03 0.03 0.04 0.04 0.03 0.02 0.02 0.02
0.01 0.01 0.01 0.01 0.01 0.01 0.01 0.01 0.01 0.01 0.01 0.01 0.01 0.01 0.02 0.03 0.03 0.03 0.02 0.03 0.04 0.05 0.05 0.04 0.03 0.02 0.02 0.01 0.00 0.00 0.01 0.01 0.01 0.03 0.03 0.02 0.02 0.02 0.02 0.02 0.02 0.02 0.02
0.01 0.01 0.01 0.01 0.01 0.01 0.01 0.01 0.01 0.02 0.01 0.01 0.01 0.01 0.01 0.02 0.03 0.04 0.03 0.03 0.03 0.04 0.05 0.05 0.04 0.04 0.03 0.02 0.01 0.01 0.01 0.02 0.01 0.01 0.03 0.02 0.01 0.02 0.01 0.01 0.01 0.01 0.01
0.00 0.00 0.00 0.00 0.01 0.01 0.01 0.02 0.02 0.01 0.01 0.01 0.02 0.02 0.02 0.03 0.03 0.04 0.05 0.04 0.04 0.05 0.05 0.04 0.04 0.03 0.03 0.03 0.02 0.02 0.02 0.02 0.02 0.01 0.02 0.04 0.02 0.02 0.02 0.02 0.02 0.02 0.02
0.00 0.00 0.00 0.01 0.01 0.01 0.01 0.01 0.01 0.01 0.01 0.02 0.03 0.04 0.04 0.04 0.05 0.05 0.06 0.06 0.05 0.05 0.06 0.06 0.05 0.04 0.04 0.04 0.04 0.03 0.02 0.03 0.02 0.02 0.02 0.03 0.04 0.03 0.03 0.03 0.03 0.03 0.03
0.00 0.01 0.01 0.01 0.01 0.01 0.01 0.01 0.01 0.01 0.02 0.03 0.04 0.05 0.06 0.07 0.08 0.08 0.09 0.11 0.12 0.11 0.08 0.07 0.05 0.05 0.05 0.05 0.05 0.04 0.03 0.04 0.03 0.02 0.02 0.03 0.05 0.04 0.03 0.03 0.03 0.03 0.03
0.00 0.01 0.01 0.01 0.01 0.01 0.02 0.02 0.01 0.01 0.02 0.02 0.03 0.04 0.05 0.08 0.09 0.10 0.11 0.11 0.13 0.15 0.14 0.13 0.13 0.10 0.08 0.05 0.04 0.04 0.04 0.03 0.04 0.03 0.02 0.02 0.03 0.04 0.04 0.04 0.04 0.04 0.03
MSLP
1007.73 1008.55 1009.39 1010.21 1010.98 1011.69 1012.35 1012.94 1013.47 1013.94 1014.33 1014.65 1014.90 1015.08 1015.21 1015.31 1015.40 1015.50 1015.62 1015.76 1015.89 1016.02 1016.12 1016.19 1016.22 1016.22 1016.21 1016.20 1016.19 1016.18 1016.16 1016.11 1016.02 1015.86 1015.64 1015.35 1015.02 1014.66 1014.32 1014.02 1013.78 1013.62 1013.52
1007.16 1007.98 1008.83 1009.67 1010.47 1011.22 1011.92 1012.57 1013.15 1013.68 1014.14 1014.53 1014.83 1015.06 1015.23 1015.35 1015.46 1015.56 1015.68 1015.80 1015.94 1016.08 1016.19 1016.28 1016.34 1016.37 1016.38 1016.39 1016.39 1016.38 1016.37 1016.34 1016.26 1016.13 1015.94 1015.69 1015.38 1015.04 1014.70 1014.37 1014.08 1013.84 1013.65
1006.46 1007.27 1008.12 1008.97 1009.80 1010.59 1011.34 1012.05 1012.71 1013.31 1013.85 1014.31 1014.69 1014.97 1015.18 1015.33 1015.45 1015.56 1015.68 1015.81 1015.96 1016.12 1016.26 1016.39 1016.49 1016.55 1016.59 1016.60 1016.61 1016.60 1016.58 1016.55 1016.48 1016.38 1016.22 1016.01 1015.75 1015.44 1015.12 1014.79 1014.47 1014.17 1013.90
1005.69 1006.47 1007.32 1008.18 1009.03 1009.86 1010.66 1011.44 1012.17 1012.86 1013.48 1014.02 1014.46 1014.81 1015.06 1015.25 1015.38 1015.50 1015.63 1015.78 1015.95 1016.14 1016.33 1016.51 1016.66 1016.76 1016.83 1016.86 1016.86 1016.84 1016.81 1016.76 1016.69 1016.60 1016.47 1016.30 1016.08 1015.82 1015.53 1015.21 1014.88 1014.54 1014.21
1004.91 1005.66 1006.48 1007.35 1008.21 1009.08 1009.93 1010.76 1011.57 1012.34 1013.04 1013.66 1014.17 1014.58 1014.87 1015.09 1015.24 1015.38 1015.53 1015.70 1015.91 1016.15 1016.39 1016.63 1016.84 1017.00 1017.10 1017.14 1017.14 1017.11 1017.05 1016.98 1016.89 1016.80 1016.68 1016.54 1016.37 1016.15 1015.89 1015.59 1015.25 1014.88 1014.50
1004.19 1004.90 1005.69 1006.54 1007.40 1008.28 1009.17 1010.05 1010.93 1011.76 1012.54 1013.23 1013.80 1014.26 1014.60 1014.85 1015.03 1015.19 1015.36 1015.56 1015.81 1016.10 1016.41 1016.72 1016.99 1017.20 1017.35 1017.42 1017.42 1017.37 1017.29 1017.18 1017.08 1016.97 1016.86 1016.73 1016.58 1016.40 1016.17 1015.89 1015.55 1015.17 1014.76
1003.59 1004.23 1004.97 1005.78 1006.63 1007.50 1008.40 1009.32 1010.23 1011.12 1011.96 1012.71 1013.34 1013.85 1014.24 1014.52 1014.73 1014.92 1015.11 1015.35 1015.65 1015.99 1016.36 1016.73 1017.07 1017.34 1017.53 1017.63 1017.64 1017.59 1017.48 1017.36 1017.23 1017.10 1016.99 1016.87 1016.74 1016.58 1016.37 1016.11 1015.78 1015.39 1014.96
1003.11 1003.68 1004.35 1005.10 1005.90 1006.75 1007.63 1008.55 1009.48 1010.40 1011.28 1012.08 1012.76 1013.32 1013.75 1014.08 1014.33 1014.55 1014.79 1015.06 1015.40 1015.79 1016.22 1016.65 1017.05 1017.37 1017.61 1017.74 1017.77 1017.72 1017.61 1017.47 1017.33 1017.19 1017.07 1016.96 1016.84 1016.70 1016.51 1016.26 1015.94 1015.56 1015.11
1002.75 1003.24 1003.83 1004.50 1005.22 1006.01 1006.85 1007.74 1008.67 1009.60 1010.50 1011.33 1012.07 1012.68 1013.16 1013.54 1013.84 1014.11 1014.39 1014.71 1015.09 1015.52 1015.99 1016.47 1016.91 1017.29 1017.56 1017.73 1017.79 1017.76 1017.66 1017.52 1017.38 1017.24 1017.12 1017.02 1016.91 1016.78 1016.61 1016.37 1016.07 1015.69 1015.24
1002.51 1002.91 1003.40 1003.97 1004.61 1005.31 1006.08 1006.92 1007.81 1008.72 1009.63 1010.49 1011.26 1011.92 1012.47 1012.92 1013.28 1013.62 1013.95 1014.32 1014.73 1015.20 1015.71 1016.21 1016.69 1017.10 1017.41 1017.61 1017.71 1017.71 1017.63 1017.52 1017.39 1017.27 1017.16 1017.07 1016.97 1016.86 1016.70 1016.48 1016.19 1015.82 1015.38
1002.38 1002.70 1003.09 1003.55 1004.07 1004.67 1005.35 1006.10 1006.93 1007.81 1008.71 1009.58 1010.38 1011.10 1011.72 1012.24 1012.69 1013.10 1013.50 1013.92 1014.38 1014.88 1015.41 1015.94 1016.43 1016.86 1017.20 1017.44 1017.57 1017.61 1017.58 1017.50 1017.40 1017.31 1017.22 1017.14 1017.06 1016.96 1016.81 1016.60 1016.32 1015.97 1015.54
1002.36 1002.61 1002.90 1003.25 1003.66 1004.14 1004.70 1005.36 1006.11 1006.93 1007.79 1008.65 1009.48 1010.25 1010.94 1011.55 1012.09 1012.58 1013.06 1013.55 1014.06 1014.59 1015.14 1015.69 1016.20 1016.64 1017.01 1017.27 1017.44 1017.52 1017.54 1017.50 1017.45 1017.38 1017.32 1017.26 1017.19 1017.10 1016.96 1016.76 1016.49 1016.15 1015.74
1002.49 1002.67 1002.88 1003.12 1003.41 1003.76 1004.20 1004.74 1005.39 1006.12 1006.92 1007.76 1008.60 1009.41 1010.16 1010.86 1011.50 1012.09 1012.66 1013.22 1013.79 1014.37 1014.94 1015.50 1016.02 1016.48 1016.87 1017.16 1017.37 1017.50 1017.56 1017.58 1017.57 1017.54 1017.50 1017.45 1017.39 1017.29 1017.16 1016.96 1016.70 1016.37 1015.98
1002.77 1002.89 1003.03 1003.17 1003.35 1003.57 1003.88 1004.29 1004.81 1005.44 1006.16 1006.95 1007.77 1008.60 1009.41 1010.18 1010.92 1011.61 1012.28 1012.92 1013.56 1014.18 1014.79 1015.37 1015.91 1016.40 1016.81 1017.14 1017.39 1017.57 1017.69 1017.75 1017.78 1017.78 1017.76 1017.72 1017.65 1017.55 1017.41 1017.21 1016.95 1016.63 1016.25
1003.19 1003.27 1003.34 1003.40 1003.46 1003.57 1003.74 1004.00 1004.39 1004.90 1005.51 1006.23 1007.01 1007.84 1008.68 1009.52 1010.33 1011.12 1011.88 1012.62 1013.32 1014.01 1014.66 1015.28 1015.85 1016.36 1016.81 1017.19 1017.49 1017.73 1017.90 1018.01 1018.08 1018.11 1018.11 1018.07 1017.99 1017.87 1017.71 1017.49 1017.23 1016.91 1016.54
1003.70 1003.75 1003.76 1003.74 1003.71 1003.69 1003.74 1003.86 1004.11 1004.48 1004.98 1005.61 1006.33 1007.14 1007.99 1008.86 1009.74 1010.60 1011.45 1012.26 1013.04 1013.79 1014.50 1015.17 1015.78 1016.34 1016.84 1017.27 1017.63 1017.93 1018.16 1018.33 1018.45 1018.51 1018.52 1018.48 1018.39 1018.25 1018.06 1017.82 1017.54 1017.22 1016.87
1004.24 1004.25 1004.21 1004.12 1004.00 1003.88 1003.80 1003.80 1003.91 1004.16 1004.55 1005.07 1005.73 1006.49 1007.32 1008.21 1009.13 1010.05 1010.96 1011.85 1012.70 1013.51 1014.27 1014.99 1015.66 1016.28 1016.83 1017.33 1017.76 1018.13 1018.43 1018.67 1018.83 1018.93 1018.96 1018.93 1018.83 1018.67 1018.45 1018.20 1017.90 1017.57 1017.22
1004.69 1004.66 1004.57 1004.42 1004.23 1004.03 1003.86 1003.75 1003.76 1003.89 1004.18 1004.62 1005.20 1005.91 1006.72 1007.61 1008.54 1009.50 1010.45 1011.39 1012.29 1013.15 1013.97 1014.75 1015.47 1016.14 1016.77 1017.33 1017.84 1018.29 1018.67 1018.97 1019.19 1019.34 1019.40 1019.38 1019.28 1019.11 1018.88 1018.60 1018.29 1017.95 1017.59
1004.94 1004.88 1004.74 1004.55 1004.31 1004.05 1003.82 1003.65 1003.59 1003.65 1003.87 1004.24 1004.77 1005.44 1006.23 1007.10 1008.04 1009.00 1009.98 1010.94 1011.88 1012.78 1013.64 1014.46 1015.23 1015.96 1016.64 1017.28 1017.86 1018.38 1018.83 1019.20 1019.48 1019.68 1019.78 1019.79 1019.71 1019.54 1019.31 1019.03 1018.70 1018.35 1018.00
1004.95 1004.84 1004.66 1004.44 1004.17 1003.90 1003.65 1003.46 1003.38 1003.42 1003.61 1003.96 1004.47 1005.12 1005.88 1006.75 1007.68 1008.64 1009.62 1010.60 1011.55 1012.48 1013.36 1014.21 1015.02 1015.79 1016.51 1017.20 1017.83 1018.41 1018.92 1019.35 1019.70 1019.95 1020.10 1020.14 1020.09 1019.95 1019.73 1019.45 1019.12 1018.77 1018.41
1004.66 1004.51 1004.31 1004.07 1003.80 1003.54 1003.32 1003.16 1003.11 1003.19 1003.41 1003.78 1004.30 1004.95 1005.73 1006.59 1007.51 1008.48 1009.46 1010.43 1011.39 1012.32 1013.22 1014.08 1014.91 1015.70 1016.45 1017.16 1017.82 1018.43 1018.98 1019.45 1019.84 1020.13 1020.32 1020.41 1020.39 1020.29 1020.10 1019.84 1019.53 1019.19 1018.82
1004.12 1003.92 1003.69 1003.45 1003.21 1003.00 1002.84 1002.77 1002.80 1002.96 1003.25 1003.69 1004.26 1004.95 1005.75 1006.62 1007.56 1008.52 1009.50 1010.48 1011.44 1012.37 1013.27 1014.14 1014.97 1015.76 1016.51 1017.22 1017.88 1018.49 1019.04 1019.52 1019.91 1020.23 1020.45 1020.57 1020.60 1020.53 1020.38 1020.17 1019.89 1019.57 1019.22
1003.36 1003.11 1002.87 1002.65 1002.45 1002.31 1002.25 1002.28 1002.43 1002.71 1003.12 1003.65 1004.30 1005.06 1005.90 1006.80 1007.76 1008.74 1009.73 1010.71 1011.68 1012.62 1013.53 1014.40 1015.23 1016.01 1016.74 1017.42 1018.05 1018.62 1019.13 1019.57 1019.95 1020.26 1020.48 1020.63 1020.69 1020.67 1020.57 1020.40 1020.17 1019.89 1019.57
1002.44 1002.15 1001.90 1001.69 1001.55 1001.50 1001.54 1001.71 1002.00 1002.42 1002.95 1003.60 1004.35 1005.18 1006.07 1007.02 1008.01 1009.02 1010.03 1011.04 1012.04 1013.01 1013.94 1014.82 1015.65 1016.42 1017.12 1017.75 1018.32 1018.82 1019.26 1019.64 1019.96 1020.22 1020.43 1020.57 1020.66 1020.68 1020.64 1020.54 1020.37 1020.15 1019.87
1001.41 1001.09 1000.82 1000.63 1000.55 1000.58 1000.75 1001.05 1001.48 1002.03 1002.70 1003.46 1004.30 1005.20 1006.16 1007.15 1008.18 1009.23 1010.28 1011.34 1012.38 1013.40 1014.38 1015.29 1016.14 1016.90 1017.57 1018.16 1018.65 1019.07 1019.41 1019.70 1019.93 1020.13 1020.30 1020.43 1020.52 1020.58 1020.60 1020.56 1020.47 1020.33 1020.12
1000.30 999.93 999.65 999.48 999.46 999.58 999.85 1000.27 1000.84 1001.52 1002.29 1003.15 1004.07 1005.04 1006.04 1007.08 1008.15 1009.24 1010.35 1011.46 1012.57 1013.66 1014.70 1015.67 1016.55 1017.32 1017.98 1018.53 1018.96 1019.29 1019.53 1019.72 1019.86 1019.98 1020.09 1020.20 1020.31 1020.40 1020.47 1020.51 1020.51 1020.45 1020.33
Thickness
5795 5795 5793 5790 5787 5782 5778 5774 5769 5765 5761 5758 5754 5750 5747 5745 5743 5742 5739 5737 5736 5734 5732 5734 5732 5731 5732 5730 5730 5729 5728 5728 5728 5727 5726 5728 5729 5729 5729 5730 5730 5729 5728
5789 5788 5786 5785 5782 5778 5774 5770 5766 5763 5760 5757 5753 5749 5746 5743 5741 5740 5736 5734 5733 5731 5732 5730 5730 5729 5728 5726 5726 5725 5726 5726 5726 5724 5721 5720 5723 5725 5728 5728 5727 5726 5726
5784 5781 5779 5778 5777 5774 5771 5768 5763 5760 5756 5753 5749 5745 5741 5739 5737 5735 5733 5731 5730 5729 5728 5727 5727 5727 5727 5725 5723 5722 5721 5721 5722 5722 5719 5717 5717 5721 5724 5723 5724 5723 5722
5781 5778 5775 5773 5772 5771 5769 5765 5760 5756 5752 5749 5746 5742 5737 5735 5735 5733 5732 5730 5728 5727 5726 5725 5723 5723 5724 5723 5722 5721 5720 5718 5718 5718 5717 5717 5717 5713 5714 5718 5720 5719 5718
5776 5773 5771 5769 5768 5767 5765 5761 5756 5752 5749 5746 5743 5738 5736 5735 5734 5731 5729 5727 5727 5725 5724 5722 5721 5720 5720 5720 5719 5717 5716 5717 5715 5715 5714 5713 5711 5711 5708 5707 5711 5714 5716
5770 5768 5768 5766 5763 5762 5759 5756 5751 5747 5745 5742 5739 5736 5733 5731 5729 5727 5726 5725 5724 5723 5722 5720 5718 5718 5717 5716 5715 5714 5713 5712 5711 5711 5711 5709 5707 5706 5706 5704 5704 5706 5710
5764 5762 5761 5759 5757 5756 5753 5751 5747 5743 5741 5738 5736 5733 5731 5728 5726 5725 5724 5723 5722 5721 5719 5719 5716 5715 5713 5712 5711 5709 5709 5708 5706 5705 5706 5707 5706 5706 5703 5701 5700 5700 5703
5758 5756 5755 5754 5752 5750 5748 5746 5743 5739 5736 5734 5732 5730 5728 5727 5725 5723 5723 5721 5720 5719 5717 5714 5713 5711 5710 5709 5707 5707 5706 5704 5702 5702 5701 5701 5702 5702 5700 5697 5695 5694 5696
5750 5750 5749 5748 5746 5745 5743 5741 5738 5735 5733 5731 5728 5726 5724 5723 5722 5720 5718 5718 5716 5715 5713 5711 5709 5708 5706 5705 5704 5703 5702 5701 5699 5699 5698 5697 5698 5697 5696 5695 5692 5689 5688
5742 5742 5741 5741 5741 5741 5738 5736 5733 5731 5729 5727 5725 5724 5721 5719 5717 5716 5714 5713 5712 5710 5709 5707 5705 5704 5702 5701 5700 5699 5698 5696 5695 5694 5693 5692 5694 5693 5692 5690 5689 5688 5685
5734 5733 5733 5734 5735 5734 5732 5729 5727 5725 5724 5723 5721 5719 5717 5715 5713 5711 5710 5708 5707 5705 5704 5703 5702 5700 5699 5698 5696 5695 5694 5692 5691 5690 5689 5687 5686 5686 5686 5685 5684 5682 5681
5726 5726 5725 5725 5725 5725 5724 5723 5720 5719 5718 5717 5715 5713 5712 5710 5707 5706 5704 5703 5701 5701 5700 5699 5697 5696 5695 5694 5692 5691 5690 5688 5686 5685 5684 5683 5682 5680 5680 5679 5678 5677 5675
5717 5717 5716 5715 5715 5715 5715 5715 5714 5712 5712 5711 5709 5707 5706 5704 5702 5701 5699 5698 5696 5695 5695 5694 5693 5692 5691 5689 5688 5687 5685 5683 5682 5680 5679 5678 5676 5674 5674 5673 5672 5672 5672
5707 5707 5706 5706 5706 5705 5706 5706 5706 5706 5705 5704 5702 5701 5700 5698 5696 5695 5693 5692 5691 5689 5688 5688 5687 5687 5686 5685 5683 5681 5679 5678 5677 5676 5674 5673 5671 5669 5668 5668 5666 5665 5664
5698 5697 5695 5695 5696 5696 5696 5697 5697 5697 5697 5696 5695 5695 5694 5692 5691 5689 5687 5686 5685 5685 5683 5682 5681 5681 5680 5679 5676 5675 5674 5672 5671 5669 5669 5667 5665 5662 5661 5662 5661 5659 5658
5688 5688 5687 5687 5687 5687 5687 5688 5688 5689 5689 5689 5689 5688 5687 5686 5685 5684 5682 5680 5679 5679 5678 5677 5676 5676 5675 5670 5667 5666 5667 5666 5665 5663 5662 5661 5659 5656 5653 5652 5650 5649 5650
5680 5679 5678 5679 5678 5679 5680 5680 5681 5682 5682 5682 5682 5682 5681 5680 5679 5678 5677 5675 5674 5673 5672 5672 5671 5670 5668 5663 5660 5658 5660 5660 5658 5657 5655 5656 5655 5651 5650 5647 5644 5643 5642
5672 5671 5671 5671 5672 5672 5673 5673 5674 5675 5675 5676 5676 5676 5675 5673 5673 5672 5671 5670 5668 5667 5666 5666 5665 5664 5662 5656 5653 5651 5653 5654 5652 5651 5650 5649 5648 5646 5643 5643 5642 5640 5639
5664 5664 5664 5665 5665 5665 5665 5666 5666 5667 5668 5669 5669 5669 5669 5668 5667 5666 5665 5664 5662 5661 5660 5660 5659 5657 5655 5650 5647 5644 5648 5648 5647 5646 5645 5643 5642 5636 5634 5635 5636 5635 5634
5657 5657 5658 5658 5658 5658 5658 5657 5659 5660 5660 5661 5662 5662 5662 5661 5661 5660 5659 5658 5656 5655 5654 5653 5653 5651 5650 5644 5641 5638 5644 5642 5641 5640 5639 5634 5633 5629 5626 5629 5629 5628 5628
5649 5650 5650 5650 5650 5650 5650 5650 5651 5652 5653 5654 5654 5654 5654 5654 5655 5654 5653 5651 5650 5649 5648 5647 5646 5645 5643 5639 5635 5632 5636 5637 5636 5636 5635 5632 5625 5622 5619 5620 5622 5622 5620
5642 5642 5642 5643 5644 5643 5643 5643 5643 5645 5645 5646 5645 5646 5646 5647 5649 5647 5646 5645 5643 5642 5641 5640 5639 5640 5638 5635 5630 5626 5626 5627 5629 5629 5629 5626 5619 5615 5613 5614 5615 5612 5611
5634 5635 5635 5636 5636 5637 5636 5636 5637 5637 5638 5638 5638 5639 5639 5640 5640 5640 5640 5639 5637 5637 5637 5636 5635 5635 5634 5630 5625 5621 5619 5619 5621 5623 5619 5616 5612 5610 5610 5609 5607 5606 5608
5627 5628 5628 5629 5629 5630 5630 5630 5631 5631 5631 5631 5631 5632 5633 5633 5632 5632 5633 5633 5633 5632 5631 5630 5630 5629 5627 5626 5623 5619 5615 5612 5613 5614 5612 5608 5607 5606 5606 5606 5605 5605 5606
5621 5621 5621 5622 5623 5624 5624 5625 5625 5625 5624 5624 5625 5626 5627 5626 5625 5625 5624 5625 5625 5623 5622 5624 5624 5622 5620 5618 5613 5612 5612 5610 5609 5605 5606 5608 5608 5607 5607 5606 5606 5604 5602
5616 5616 5616 5617 5618 5618 5618 5619 5619 5618 5618 5618 5619 5620 5621 5620 5620 5620 5618 5614 5615 5613 5610 5610 5611 5613 5609 5606 5604 5602 5600 5599 5596 5597 5603 5604 5604 5604 5603 5602 5601 5599 5597